Station: Macquarie Island  

  Atmospheric Gas Attenuation - ITU Rec 676-11   ----------------- dB/100km -----------------
Date Time Temp RH % AH g/m3 Dew Point Wind Direction Speed kph Gust kph Barometer mB Rainfall Since 9am 24GHz 47GHz 76GHz 122GHz 134GHz 241GHz
06/09 10:40 4.5 69 4.54 -0.7 19 24 1003.9 0 11.2 21.6 27.4 71.3 54.3 182.8
06/09 10:30 4.1 69 4.42 -1.1 19 26 1003.9 0 11.0 21.5 27.1 70.5 53.1 178.4
06/09 10:20 3.4 69 4.22 -1.7 20 26 1003.8 0 10.6 21.3 26.5 69.0 51.0 171.1
06/09 10:10 3.1 66 3.95 -2.6 22 28 1003.7 0 10.0 21.0 25.6 66.6 47.8 159.8
06/09 10:00 3.4 66 4.03 -2.3 19 26 1003.6 0 10.2 21.0 25.8 67.1 48.6 162.7
06/09 09:50 3.5 66 4.06 -2.2 19 33 1003.4 0 10.2 21.1 25.9 67.3 48.9 163.8
06/09 09:40 3.4 67 4.1 -2.1 13 22 1003.3 0 10.3 21.1 26.1 67.8 49.5 165.7
06/09 09:30 2.3 71 4.03 -2.4 13 24 1003.4 0 10.2 21.3 26.1 68.0 49.3 164.9
06/09 09:20 1.6 73 3.95 -2.7 11 22 1003.4 0 10.1 21.3 26.1 67.8 48.7 162.8
06/09 09:10 1.6 75 4.06 -2.3 20 35 1003.4 0 10.3 21.5 26.5 68.9 50.1 167.7
06/09 09:00 2.2 72 4.06 -2.3 24 39 1003.3 0 10.3 21.4 26.3 68.4 49.8 166.4
06/09 08:50 2.5 63 3.63 -3.8 20 33 1003.1 0.2 9.3 20.6 24.6 63.8 44.2 146.8
06/09 08:40 2.7 63 3.67 -3.6 19 32 1002.9 0.2 9.4 20.6 24.6 64.0 44.5 148.2
06/09 08:30 2.4 64 3.66 -3.7 22 43 1002.8 0.2 9.4 20.7 24.7 64.1 44.6 148.3
06/09 08:20 2.4 67 3.83 -3.1 15 37 1002.6 0.2 9.8 20.9 25.3 65.8 46.7 155.7
06/09 08:10 2.5 63 3.63 -3.8 17 24 1002.5 0.2 9.3 20.6 24.5 63.7 44.1 146.8
06/09 08:00 2.4 67 3.83 -3.1 15 26 1002.3 0.2 9.8 20.9 25.3 65.8 46.7 155.7
06/09 07:50 2.3 69 3.92 -2.8 15 24 1002.2 0.2 10.0 21.1 25.7 66.8 47.9 159.8
06/09 07:40 1.9 72 3.98 -2.6 11 19 1002.1 0.2 10.1 21.3 26.0 67.8 48.9 163.3
06/09 07:30 1.8 74 4.06 -2.3 15 28 1002.1 0.2 10.3 21.4 26.4 68.7 49.9 167.1
06/09 07:20 2 73 4.06 -2.3 17 28 1002 0.2 10.3 21.4 26.3 68.5 49.8 166.7
06/09 07:10 1.9 72 3.98 -2.6 19 24 1001.6 0.2 10.1 21.2 26.0 67.7 48.8 163.2
06/09 07:00 2.2 73 4.12 -2.1 15 26 1001.6 0.2 10.4 21.4 26.5 68.9 50.4 168.9
06/09 06:50 2 71 3.95 -2.7 17 32 1001.3 0.2 10.1 21.2 25.9 67.3 48.4 161.6
06/09 06:40 1.8 71 3.9 -2.9 15 24 1001.2 0.2 9.9 21.1 25.7 66.9 47.9 159.8
06/09 06:30 2 67 3.73 -3.5 19 30 1000.9 0.2 9.6 20.8 25.0 65.0 45.6 151.9
06/09 06:20 1.9 67 3.7 -3.6 22 33 1000.8 0.2 9.5 20.8 24.9 64.8 45.3 150.7
06/09 06:10 1.7 68 3.71 -3.6 19 37 1000.7 0.2 9.5 20.8 25.0 65.1 45.5 151.5
06/09 06:00 1.6 70 3.79 -3.3 20 37 1000.6 0.2 9.7 21.0 25.4 65.9 46.6 155.2
06/09 05:50 1.7 71 3.87 -3 24 39 1000.5 0.2 9.9 21.1 25.6 66.7 47.5 158.6
06/09 05:40 1.9 68 3.76 -3.4 24 39 1000.2 0.2 9.6 20.9 25.1 65.4 46.0 153.3
06/09 05:30 1.7 70 3.82 -3.2 24 39 1000.3 0.2 9.8 21.0 25.4 66.1 46.9 156.3
06/09 05:20 2.2 68 3.83 -3.1 24 44 1000.1 0.2 9.8 20.9 25.3 65.8 46.7 155.8
06/09 05:10 2.1 64 3.58 -4 26 46 999.8 0.2 9.2 20.5 24.4 63.3 43.6 144.9
06/09 05:00 2.1 68 3.81 -3.2 32 56 999.8 0.2 9.7 20.9 25.2 65.7 46.5 155.0
06/09 04:50 2 69 3.84 -3.1 26 43 999.8 0.2 9.8 20.9 25.4 66.0 46.9 156.5
06/09 04:40 1.9 69 3.81 -3.2 20 41 999.7 0.2 9.7 20.9 25.3 65.8 46.6 155.4
06/09 04:30 2 69 3.84 -3.1 33 50 999.4 0.2 9.8 20.9 25.4 66.0 46.9 156.5
06/09 04:20 1.8 73 4.01 -2.5 28 57 999.2 0.2 10.2 21.2 26.1 67.9 49.2 164.4
06/09 04:10 2.2 71 4 -2.5 32 54 999.1 0.2 10.1 21.1 25.9 67.5 48.8 163.1
06/09 04:00 2.1 68 3.81 -3.2 37 52 999.1 0.2 9.7 20.9 25.2 65.6 46.5 154.9
06/09 03:50 2.2 67 3.78 -3.3 30 44 998.6 0.2 9.7 20.8 25.1 65.2 46.0 153.3
06/09 03:40 1.9 67 3.7 -3.6 28 46 998.5 0.2 9.5 20.7 24.8 64.6 45.2 150.4
06/09 03:30 1.8 70 3.84 -3.1 28 44 998.6 0.2 9.8 20.9 25.4 66.1 47.0 156.8
06/09 03:20 1.6 75 4.06 -2.3 30 43 998.4 0.2 10.3 21.3 26.3 68.5 49.9 166.9
06/09 03:10 1.3 75 3.98 -2.6 24 39 998.3 0.2 10.1 21.3 26.1 68.0 49.1 164.0
06/09 03:00 2 74 4.12 -2.1 33 54 998.2 0.2 10.4 21.3 26.4 68.8 50.4 168.8
06/09 02:50 2.1 66 3.7 -3.6 33 50 997.9 0.2 9.5 20.6 24.8 64.4 45.0 149.9
06/09 02:40 2.2 65 3.67 -3.7 32 50 997.7 0.2 9.4 20.6 24.6 64.0 44.6 148.4
06/09 02:30 2 68 3.78 -3.3 33 48 997.7 0.2 9.7 20.8 25.1 65.3 46.1 153.6
06/09 02:20 2.1 68 3.81 -3.2 32 50 997.6 0.2 9.7 20.8 25.2 65.5 46.4 154.7
06/09 02:10 2.1 68 3.81 -3.2 35 52 997.4 0.2 9.7 20.8 25.2 65.5 46.4 154.7
06/09 02:00 2.1 66 3.7 -3.6 37 48 997.4 0.2 9.5 20.6 24.7 64.4 45.0 149.9
06/09 01:50 2.2 67 3.78 -3.3 35 48 997.4 0.2 9.7 20.7 25.0 65.1 46.0 153.2
06/09 01:40 2.1 66 3.7 -3.6 37 50 997.3 0.2 9.5 20.6 24.7 64.3 45.0 149.8
06/09 01:30 2 66 3.67 -3.7 37 50 997.2 0.2 9.4 20.6 24.7 64.1 44.7 148.7
06/09 01:20 1.9 71 3.92 -2.8 35 54 997.1 0.2 10.0 21.0 25.6 66.7 47.9 159.9
06/09 01:10 1.9 70 3.87 -3 35 46 997.1 0.2 9.9 20.9 25.4 66.2 47.2 157.7
06/09 01:00 2.1 68 3.81 -3.2 39 48 997 0.2 9.7 20.8 25.1 65.4 46.4 154.6
06/09 00:50 2 69 3.84 -3.1 37 50 996.7 0.2 9.8 20.8 25.3 65.8 46.8 156.1
06/09 00:40 2 73 4.06 -2.3 33 46 996.6 0.2 10.3 21.2 26.1 68.0 49.6 165.8
06/09 00:30 1.9 72 3.98 -2.6 37 46 996.5 0.2 10.1 21.1 25.8 67.3 48.6 162.5
06/09 00:20 2 69 3.84 -3.1 37 44 996.3 0.2 9.8 20.8 25.3 65.8 46.8 156.0
06/09 00:10 1.9 68 3.76 -3.4 33 50 996.1 0.2 9.6 20.7 25.0 65.0 45.8 152.7
06/09 00:00 1.7 67 3.65 -3.8 35 52 996 0.2 9.4 20.6 24.6 64.1 44.6 148.2
05/09 23:50 1.9 67 3.7 -3.6 37 52 996 0.2 9.5 20.6 24.8 64.4 45.1 150.0
05/09 23:40 1.9 70 3.87 -3 33 50 995.7 0.2 9.9 20.9 25.4 66.1 47.2 157.5
05/09 23:30 1.7 72 3.92 -2.8 37 48 995.6 0.2 10.0 21.0 25.6 66.8 47.9 160.1
05/09 23:20 1.9 73 4.03 -2.4 33 56 995.5 0.2 10.2 21.1 26.0 67.7 49.2 164.5
05/09 23:10 1.9 72 3.98 -2.6 35 46 995.3 0.2 10.1 21.0 25.8 67.2 48.5 162.3
05/09 23:00 1.9 72 3.98 -2.6 37 48 995 0.2 10.1 21.0 25.8 67.2 48.5 162.2
05/09 22:50 1.9 70 3.87 -3 35 48 994.9 0.2 9.9 20.8 25.4 66.0 47.1 157.4
05/09 22:40 1.8 72 3.95 -2.7 35 59 994.6 0.2 10.0 21.0 25.7 66.9 48.2 161.1
05/09 22:30 1.8 68 3.73 -3.5 37 50 994.6 0.2 9.6 20.6 24.8 64.7 45.4 151.4
05/09 22:20 1.8 68 3.73 -3.5 39 54 994.3 0.2 9.6 20.6 24.8 64.7 45.4 151.3
05/09 22:10 1.9 70 3.87 -3 39 61 994.2 0.2 9.9 20.8 25.3 66.0 47.1 157.3
05/09 22:00 1.8 74 4.06 -2.3 35 50 994.1 0.2 10.3 21.1 26.1 68.0 49.6 165.9
05/09 21:50 1.9 70 3.87 -3 39 57 993.9 0.2 9.9 20.8 25.3 66.0 47.1 157.2
05/09 21:40 2 72 4.01 -2.5 39 56 993.6 0.2 10.2 21.0 25.8 67.3 48.8 163.2
05/09 21:30 1.8 70 3.84 -3.1 37 57 993.5 0.2 9.8 20.8 25.2 65.7 46.8 156.0
05/09 21:20 1.7 73 3.98 -2.6 30 54 993.3 0.2 10.1 21.0 25.8 67.2 48.6 162.4
05/09 21:10 1.7 73 3.98 -2.6 30 59 993.1 0.2 10.1 21.0 25.8 67.2 48.6 162.4
05/09 21:00 1.7 74 4.03 -2.4 35 59 992.9 0.2 10.2 21.1 26.0 67.7 49.2 164.6
05/09 20:50 1.6 75 4.06 -2.3 35 56 992.7 0.2 10.3 21.1 26.1 68.1 49.6 166.1
05/09 20:40 1.3 84 4.46 -1.1 37 50 992.5 0.2 11.2 21.8 27.7 72.5 55.0 184.8
05/09 20:30 0.7 83 4.23 -1.8 41 65 992.4 0.2 10.7 21.6 27.0 70.6 52.4 175.6
05/09 20:20 1.7 79 4.31 -1.5 37 46 992.1 0.2 10.8 21.5 27.0 70.5 52.7 177.0
05/09 20:10 1.7 74 4.03 -2.4 41 61 992.1 0.2 10.2 21.0 25.9 67.6 49.2 164.4
05/09 20:00 1.7 74 4.03 -2.4 43 57 991.9 0.2 10.2 21.0 25.9 67.6 49.1 164.4
05/09 19:50 1.8 72 3.95 -2.7 43 54 991.6 0.2 10.0 20.9 25.6 66.7 48.1 160.6
05/09 19:40 1.7 76 4.14 -2.1 39 54 991.5 0.2 10.5 21.2 26.3 68.7 50.5 169.3
05/09 19:30 1.7 77 4.2 -1.9 39 56 991.4 0.2 10.6 21.3 26.5 69.3 51.3 171.9
05/09 19:20 1.8 73 4.01 -2.5 39 65 991.1 0.2 10.2 20.9 25.8 67.2 48.8 163.2
05/09 19:10 1.6 73 3.95 -2.7 33 57 990.9 0.2 10.0 20.9 25.6 66.8 48.1 160.9
05/09 19:00 1.7 72 3.92 -2.8 41 67 990.7 0.2 10.0 20.8 25.5 66.4 47.7 159.4
05/09 18:50 1.6 72 3.9 -2.9 41 65 990.7 0.2 9.9 20.8 25.4 66.3 47.5 158.7
05/09 18:40 1.7 73 3.98 -2.6 41 61 990.5 0.2 10.1 20.9 25.7 67.0 48.4 162.0
05/09 18:30 1.6 78 4.22 -1.8 43 63 990.1 0.2 10.6 21.3 26.6 69.5 51.5 172.8
05/09 18:20 1.7 80 4.36 -1.4 43 57 990 0.2 10.9 21.5 27.1 70.8 53.3 178.9
05/09 18:10 1.3 81 4.3 -1.6 35 59 989.7 0.2 10.8 21.5 27.0 70.5 52.7 177.0

Last Refresh: 06-Sep-2026 10:18:27

Bureau of Meteorology